[[{"header":{"parameterUnit":"m.s-1","parameterCategory":1,"la1":30.2991,"la2":30.254,"lo1":-89.0895,"lo2":-89.0444,"dy":0.0017,"dx":0.0017,"nx":28,"ny":28,"refTime":"2023-09-20T03:00:00:Z","depth":0,"parameterNumber":2,"parameterNumberName":"U-component_of_WINDS"},"data":[0,0,0,0,0,0,0,0,0,0,0,0,0,0,0,0,0,0,0,0,0,0,0,0,0,0,0,0,0,0,0,0,0,0,0,0,0,0,0,0,0,0,0,0,0,0,0,0,0,0,0,0,0,0,0,0,0,0,-4.1213,-4.1213,0,-4.1216,-4.1216,-4.1216,-4.1076,-4.1072,-4.1068,-4.1065,-4.1076,-4.1079,-4.1083,0,0,0,0,0,0,0,0,0,0,0,0,0,-4.1092,-4.1095,-4.1213,-4.1213,-4.1213,-4.1216,-4.1216,-4.1216,-4.1077,-4.1072,-4.1067,-4.1063,-4.1074,-4.1079,-4.1083,0,0,0,0,0,0,0,0,0,0,0,0,0,-4.1125,-4.1096,-4.1213,-4.1143,-4.1137,-4.1216,-4.1216,-4.1217,-4.1078,-4.1072,-4.1066,-4.1061,-4.1073,-4.1078,-4.1084,-4.1232,0,0,-4.1101,-4.1104,0,0,0,0,0,0,0,0,-4.1123,-4.113,-4.1153,-4.1148,-4.1141,-4.114,-4.1177,-4.1222,-4.1079,-4.11,-4.1065,-4.1058,-4.1102,-4.1105,-4.1118,-4.1233,-4.1233,-4.1102,-4.1105,-4.1108,-4.1109,0,0,0,0,0,0,0,-4.1121,-4.1129,-4.1214,-4.1154,-4.1147,-4.1114,-4.1113,-4.1185,-4.1133,-4.1098,-4.1088,-4.109,-4.1098,-4.1113,-4.1117,-4.1233,-4.1102,-4.1107,-4.111,-4.1112,-4.1472,-4.1478,0,0,0,0,0,0,-4.1127,-4.1128,-4.1214,-4.1214,-4.1118,-4.1121,-4.1119,-4.1146,-4.1132,-4.1124,-4.1095,-4.1083,-4.1106,-4.1111,-4.1117,-4.1291,-4.1108,-4.1113,-4.1116,-4.1466,-4.1473,-4.148,0,0,0,0,0,0,-4.1125,-4.1136,-4.1214,-4.1168,-4.1176,-4.1129,-4.116,-4.1149,-4.1164,-4.1129,-4.112,-4.112,-4.1102,-4.1109,-4.1205,-4.129,-4.1116,-4.1121,-4.1459,-4.1468,-4.1477,-4.164,0,0,0,0,0,0,-4.1122,-4.1136,-4.119,-4.117,-4.1179,-4.13,-4.1165,-4.1153,-4.1174,-4.1159,-4.115,-4.1143,-4.1098,-4.1197,-4.121,-4.1294,-4.1125,-4.1451,-4.1463,-4.1474,-4.1627,-4.1653,-4.1676,0,0,0,0,0,-4.1119,-4.1237,-4.1194,-4.1205,-4.1245,-4.1304,-4.1309,-4.1253,-4.1181,-4.1236,-4.1214,-4.1143,-4.1278,-4.1208,-4.1222,-4.1309,-4.1445,-4.146,-4.1473,-4.1615,-4.1648,-4.1676,0,0,0,0,0,0,-4.127,-4.1233,-4.1185,-4.13,-4.1306,-4.1281,-4.1348,-4.1289,-4.1318,-4.1303,-4.1234,-4.1233,-4.1341,-4.1334,-4.1256,-4.1453,-4.1349,-4.1367,-4.1453,-4.1484,-4.1508,-4.1508,-4.113,0,0,0,0,0,-4.1316,-4.1366,-4.1332,-4.1437,-4.1442,-4.1395,-4.1419,-4.1375,-4.138,-4.1383,-4.1367,-4.1377,-4.1421,-4.1452,-4.149,-4.1625,-4.1623,-4.1692,-4.1717,-4.1737,-4.1754,-4.1827,-4.1858,-4.1525,-4.1525,-4.1525,0,0,-4.1413,-4.1399,-4.1435,-4.1467,-4.1466,-4.1522,-4.1398,-4.1462,-4.1503,-4.1393,-4.1482,-4.1471,-4.1477,-4.1594,-4.1644,-4.1592,-4.1845,-4.1755,-4.1772,-4.1777,-4.1844,-4.1876,-4.1904,-4.1535,-4.1533,-4.1532,0,0,-4.1618,-4.1612,-4.1699,-4.1702,-4.1702,-4.1671,-4.1692,-4.1676,-4.1664,-4.1752,-4.1671,-4.1721,-4.1798,-4.1806,-4.1821,-4.2032,-4.1969,-4.2047,-4.2177,-4.2249,-4.2275,-4.2298,-4.2376,-4.2404,-4.2063,-4.2063,-4.2063,0,-4.174,-4.1817,-4.1752,-4.1821,-4.1839,-4.174,-4.183,-4.1836,-4.1851,-4.1867,-4.1807,-4.1904,-4.1901,-4.2019,-4.207,-4.2085,-4.2109,-4.2047,-4.2276,-4.2299,-4.2319,-4.2392,-4.2422,-4.2072,-4.2071,-4.207,-4.2069,0,-4.1967,-4.2023,-4.2094,-4.2109,-4.2134,-4.2214,-4.2164,-4.2198,-4.2153,-4.2128,-4.2221,-4.2214,-4.2251,-4.2275,-4.2232,-4.2388,-4.2356,-4.2288,-4.2183,-4.2362,-4.2429,-4.2457,-4.2086,-4.2083,-4.208,-4.2077,0,0,-4.2267,-4.2246,-4.2273,-4.228,-4.2274,-4.2317,-4.2394,-4.2428,-4.246,-4.2474,-4.2538,-4.2607,-4.2544,-4.2561,-4.2518,-4.2581,-4.2752,-4.2505,-4.2504,-4.2553,-4.2927,-4.2979,-4.3012,-4.271,-4.2715,-4.2719,-4.2927,0,-4.2467,-4.2594,-4.2539,-4.2672,-4.2724,-4.2633,-4.2699,-4.2705,-4.2685,-4.2729,-4.2707,-4.2758,-4.2669,-4.2679,-4.2738,-4.2718,-4.2826,-4.2702,-4.2772,-4.2775,-4.2774,-4.3047,-4.3102,-4.3299,-4.2953,-4.2957,-4.296,0,-4.2717,-4.274,-4.2879,-4.2866,-4.2886,-4.2947,-4.2975,-4.3016,-4.3023,-4.3004,-4.3023,-4.2967,-4.3044,-4.2939,-4.3046,-4.2964,-4.2989,-4.2984,-4.299,-4.2996,-4.2879,-4.3062,-4.336,-4.339,-4.3001,-4.2998,-4.2995,0,-4.2924,-4.299,-4.3082,-4.309,-4.3077,-4.3123,-4.312,-4.312,-4.3145,-4.317,-4.3186,-4.3222,-4.3241,-4.3271,-4.3227,-4.3154,-4.3342,-4.3233,-4.3331,-4.3333,-4.3376,-4.3374,-4.3684,-4.339,-4.339,-4.3389,-4.3388,0,-4.3154,-4.3243,-4.3175,-4.3232,-4.333,-4.3267,-4.3367,-4.3354,-4.3355,-4.341,-4.3333,-4.3387,-4.3325,-4.3374,-4.334,-4.3436,-4.3445,-4.3434,-4.3424,-4.3442,-4.3444,-4.3458,-4.3444,-4.3397,-4.3395,-4.3393,-4.3392,0,-4.3402,-4.336,-4.3454,-4.3434,-4.3431,-4.3505,-4.3489,-4.3542,-4.3517,-4.3588,-4.3601,-4.3562,-4.3616,-4.3575,-4.3628,-4.3605,-4.3732,-4.3702,-4.373,-4.3722,-4.3824,-4.3816,-4.4155,-4.4198,-4.3876,-4.3879,-4.3881,0,-4.3552,-4.3618,-4.3606,-4.3636,-4.3637,-4.3687,-4.3712,-4.3654,-4.3684,-4.3697,-4.375,-4.3796,-4.383,-4.3921,-4.39,-4.3941,-4.3913,-4.4029,-4.3919,-4.3935,-4.3917,-4.3915,-4.3922,-4.4052,-4.4056,-4.4059,-4.4062,0,-4.3824,-4.38,-4.3837,-4.3869,-4.3901,-4.3923,-4.3939,-4.397,-4.3911,-4.3949,-4.4001,-4.4028,-4.4082,-4.4131,-4.4165,-4.4165,-4.4106,-4.4097,-4.4122,-4.4141,-4.4155,-4.4151,-4.3793,-4.4089,-4.4086,-4.4084,-4.4083,-4.4082,-4.4028,-4.4084,-4.4084,-4.4129,-4.4135,-4.4153,-4.4203,-4.4184,-4.4226,-4.4264,-4.4228,-4.4293,-4.43,-4.4339,-4.4347,-4.4399,-4.4351,-4.4388,-4.4397,-4.4408,-4.4423,-4.4146,-4.4405,-4.4404,-4.4403,-4.4403,-4.4402,0,-4.4298,-4.4293,-4.4335,-4.4361,-4.4397,-4.4335,-4.4351,-4.4387,-4.4444,-4.4455,-4.449,-4.4553,-4.4601,-4.4583,-4.4626,-4.4671,-4.4646,-4.4685,-4.4682,-4.4683,-4.4462,-4.4436,-4.4705,-4.4705,-4.4705,-4.4705,-4.4705,-4.4705,-4.4442,-4.4533,-4.451,-4.4604,-4.46,-4.4661,-4.4676,-4.4693,-4.4701,-4.4774,-4.4813,-4.48,-4.4801,-4.4844,-4.4886,-4.488,-4.49,-4.495,-4.4935,-4.4728,-4.4699,-4.467,-4.4646,-4.4954,-4.4955,-4.5152,-4.5154,-4.5155]},{"header":{"parameterUnit":"m.s-1","parameterCategory":1,"la1":30.2991,"la2":30.254,"lo1":-89.0895,"lo2":-89.0444,"dy":0.0017,"dx":0.0017,"nx":28,"ny":28,"refTime":"2023-09-20T03:00:00:Z","depth":0,"parameterNumber":3,"parameterNumberName":"V-component_of_WINDS"},"data":[0,0,0,0,0,0,0,0,0,0,0,0,0,0,0,0,0,0,0,0,0,0,0,0,0,0,0,0,0,0,0,0,0,0,0,0,0,0,0,0,0,0,0,0,0,0,0,0,0,0,0,0,0,0,0,0,0,0,1.1866,1.1865,0,1.1763,1.1762,1.1761,1.1746,1.1747,1.1748,1.1749,1.1636,1.1632,1.1628,0,0,0,0,0,0,0,0,0,0,0,0,0,1.2045,1.2042,1.1867,1.1865,1.1864,1.1763,1.1762,1.176,1.1746,1.1747,1.1748,1.1749,1.1637,1.1632,1.1627,0,0,0,0,0,0,0,0,0,0,0,0,0,1.1957,1.2041,1.1867,1.1845,1.1842,1.1764,1.1762,1.176,1.1746,1.1747,1.1749,1.175,1.1638,1.1633,1.1627,1.1561,0,0,1.1609,1.1606,0,0,0,0,0,0,0,0,1.1962,1.195,1.1849,1.1846,1.1843,1.1769,1.1783,1.1693,1.1745,1.1782,1.1749,1.1751,1.1678,1.1669,1.1646,1.1556,1.1551,1.1608,1.1605,1.1602,1.16,0,0,0,0,0,0,0,1.1968,1.1955,1.1825,1.1848,1.1844,1.1838,1.1827,1.1766,1.1723,1.1779,1.1778,1.1766,1.1677,1.1652,1.1644,1.1549,1.1608,1.1603,1.16,1.1597,1.1399,1.1397,0,0,0,0,0,0,1.1979,1.196,1.1829,1.1822,1.1907,1.1834,1.1821,1.1791,1.1724,1.1715,1.1765,1.1766,1.1661,1.165,1.164,1.1557,1.1602,1.1597,1.1593,1.14,1.1398,1.1396,0,0,0,0,0,0,1.1983,1.1968,1.1833,1.1891,1.1873,1.1829,1.1795,1.1788,1.1764,1.1713,1.1705,1.1748,1.1662,1.1648,1.1581,1.1553,1.1594,1.1589,1.1402,1.14,1.1397,1.1392,0,0,0,0,0,0,1.1988,1.1969,1.1945,1.189,1.187,1.1778,1.1793,1.1785,1.1754,1.1755,1.1695,1.1686,1.1662,1.159,1.1575,1.1545,1.1584,1.1405,1.1401,1.1398,1.1394,1.1389,1.1385,0,0,0,0,0,1.1995,1.1946,1.1944,1.1928,1.1839,1.1776,1.1764,1.174,1.1752,1.1726,1.1694,1.1688,1.1559,1.1583,1.1566,1.1534,1.1406,1.1402,1.1398,1.1396,1.139,1.1385,0,0,0,0,0,0,1.1995,1.1938,1.1935,1.1868,1.1828,1.1774,1.1741,1.1734,1.1687,1.1689,1.1658,1.1645,1.1579,1.155,1.1578,1.1467,1.1483,1.1476,1.1488,1.1481,1.1477,1.1484,1.1579,0,0,0,0,0,1.1988,1.1944,1.1896,1.1841,1.1821,1.1785,1.1756,1.1741,1.1697,1.1678,1.1641,1.1596,1.1546,1.1512,1.1463,1.1391,1.1377,1.1361,1.1357,1.1353,1.1346,1.1304,1.1296,1.1383,1.1383,1.1383,0,0,1.1972,1.1935,1.1908,1.184,1.1807,1.1759,1.177,1.1719,1.1683,1.167,1.1605,1.1576,1.1524,1.1454,1.1422,1.1428,1.1319,1.1348,1.1346,1.134,1.1299,1.1291,1.1284,1.1381,1.1381,1.1382,0,0,1.1917,1.1886,1.1837,1.1804,1.1755,1.1731,1.172,1.1667,1.1649,1.1584,1.1573,1.1529,1.1442,1.1405,1.1375,1.1309,1.1301,1.1294,1.1269,1.1229,1.1222,1.1215,1.1189,1.1181,1.1288,1.1288,1.1288,0,1.1901,1.1832,1.1811,1.1761,1.1731,1.1721,1.1669,1.1638,1.1574,1.1552,1.1561,1.1453,1.1417,1.1338,1.1322,1.1299,1.1283,1.1299,1.1225,1.1218,1.1212,1.1187,1.1178,1.1287,1.1287,1.1287,1.1287,0,1.1815,1.1767,1.1732,1.1674,1.164,1.1589,1.1559,1.1527,1.1515,1.149,1.1423,1.1381,1.1323,1.1303,1.1291,1.1222,1.1228,1.1232,1.1247,1.1203,1.1179,1.117,1.1286,1.1286,1.1286,1.1287,0,0,1.1753,1.1687,1.1674,1.1647,1.1593,1.1554,1.1503,1.1449,1.1421,1.1378,1.1332,1.1261,1.1265,1.123,1.1214,1.1179,1.1127,1.1187,1.1185,1.1175,1.1047,1.1042,1.1031,1.1124,1.1122,1.112,1.105,0,1.169,1.1601,1.1582,1.1503,1.1458,1.1449,1.1404,1.1365,1.1341,1.1297,1.1269,1.1218,1.1228,1.1208,1.1173,1.1141,1.1101,1.1146,1.1078,1.1075,1.1088,1.1019,1.1014,1.095,1.1041,1.1039,1.1038,0,1.1604,1.1562,1.148,1.1432,1.1412,1.1373,1.1321,1.128,1.1236,1.122,1.1184,1.1172,1.1116,1.1137,1.1059,1.109,1.1061,1.1042,1.1038,1.1028,1.1052,1.1004,1.0929,1.0918,1.1024,1.1025,1.1026,0,1.1565,1.1487,1.1428,1.1406,1.135,1.1322,1.1296,1.1254,1.1222,1.1177,1.1156,1.1104,1.1075,1.1034,1.1008,1.1026,1.093,1.095,1.0913,1.0914,1.089,1.0892,1.0806,1.0878,1.0878,1.0878,1.0878,0,1.1494,1.1443,1.141,1.1373,1.1315,1.1294,1.1237,1.1212,1.1174,1.1131,1.112,1.1079,1.1048,1.1002,1.0981,1.0918,1.0905,1.0889,1.0883,1.0888,1.089,1.0866,1.0868,1.0875,1.0876,1.0876,1.0877,0,1.1438,1.1414,1.1349,1.1303,1.129,1.1249,1.1208,1.1171,1.1149,1.1094,1.1079,1.1042,1.0988,1.0959,1.0889,1.0875,1.0804,1.0802,1.0819,1.0816,1.078,1.0783,1.0674,1.0658,1.0743,1.0742,1.0742,0,1.1393,1.1355,1.1305,1.1277,1.1252,1.1206,1.1175,1.1153,1.112,1.1067,1.1036,1.0982,1.0937,1.085,1.0815,1.0762,1.0757,1.0723,1.0748,1.0754,1.0753,1.0754,1.0749,1.0717,1.0716,1.0715,1.0715,0,1.1315,1.1306,1.1262,1.1215,1.1179,1.114,1.1101,1.1078,1.1049,1.1013,1.0959,1.0924,1.0856,1.0801,1.0746,1.0717,1.0709,1.0708,1.0696,1.0698,1.0709,1.07,1.0803,1.0709,1.071,1.071,1.071,1.0711,1.1261,1.1226,1.1186,1.1138,1.1108,1.1072,1.1035,1.1009,1.0964,1.0908,1.0898,1.084,1.0796,1.0722,1.0692,1.0645,1.0651,1.0635,1.063,1.0625,1.0623,1.072,1.0635,1.0635,1.0635,1.0636,1.0636,0,1.118,1.1155,1.1111,1.1059,1.1021,1.1022,1.098,1.0947,1.0897,1.0858,1.0815,1.0752,1.07,1.0663,1.0609,1.0578,1.0573,1.0564,1.0564,1.0557,1.0621,1.0636,1.0569,1.0569,1.0569,1.0569,1.0569,1.0569,1.1133,1.1073,1.1059,1.0984,1.0959,1.0904,1.0879,1.0846,1.0815,1.0746,1.0703,1.0681,1.0642,1.0585,1.0536,1.0527,1.0506,1.0496,1.0486,1.0546,1.0553,1.0559,1.0572,1.0493,1.0493,1.0425,1.0424,1.0424]}]]